Wind_Speed
61 60 58 56 53 50 48 48 47 46 45 44 44 44 43 43 42 42 42 43 43 43 44 44 45 45 45 45 46 47 48 49 50 51 52 53 54 56 58 59 61 62 64 65 67 68 69 71 72 74 75 77 78 79 80 80 79 78 76 74 71 68 66 64 62 61 60 61 62 63 62 61 62 65 65 66 67 67 68 69 70 70 71 71 72 73 74 75
60 59 58 56 53 50 48 47 46 45 45 45 45 44 44 44 44 44 44 44 44 45 44 45 45 45 45 45 46 47 48 49 50 51 53 54 56 58 59 61 63 64 66 67 68 69 71 72 74 75 77 78 79 79 78 77 75 72 69 65 63 61 61 61 61 61 61 62 64 66 65 64 65 67 69 69 70 71 72 73 74 75 76 76 77 78 78 79
56 57 56 54 52 49 47 46 45 45 45 45 45 45 44 44 44 45 45 45 45 45 45 46 46 45 46 46 46 47 48 49 51 52 54 56 58 59 61 63 64 65 67 68 69 71 72 74 75 77 78 78 77 75 73 70 67 64 61 60 60 60 61 62 62 63 64 65 67 69 69 69 69 70 72 72 73 74 76 77 78 79 79 80 81 82 82 83
52 54 54 52 50 47 45 45 45 45 45 45 45 44 44 43 44 44 44 44 45 45 45 45 46 46 46 47 47 48 49 50 52 54 56 58 59 61 62 63 65 66 67 69 70 72 74 75 76 76 76 74 72 68 65 62 60 60 60 60 61 62 63 64 65 66 67 69 70 72 73 73 73 74 75 75 76 77 78 80 81 82 82 83 84 85 86 87
48 51 51 50 48 46 44 43 43 44 43 43 43 43 42 42 42 42 42 43 44 45 45 45 45 46 46 47 47 48 49 52 54 55 57 59 60 61 63 64 65 67 69 70 72 73 74 75 74 73 70 67 64 61 59 59 59 60 61 62 64 65 66 67 68 69 70 72 73 74 76 77 78 78 78 78 78 79 81 82 83 84 85 86 87 88 89 89
47 47 49 48 46 44 43 42 42 41 41 41 41 40 40 40 40 40 41 42 44 44 44 44 45 46 46 46 47 49 51 54 55 57 58 59 61 62 63 65 67 68 70 71 73 73 73 71 69 65 62 60 59 59 59 61 62 63 64 65 66 68 69 70 70 71 72 74 75 77 78 80 81 82 82 82 81 82 83 84 85 86 87 88 88 89 90 91
46 45 46 45 44 42 41 41 41 41 40 39 38 38 38 38 39 40 42 43 43 43 44 44 45 45 46 47 49 51 53 55 56 58 59 60 61 63 65 66 68 69 71 71 71 70 67 64 61 58 57 58 59 61 62 64 65 66 67 68 69 70 71 72 73 74 75 76 77 78 80 81 82 83 84 83 82 83 84 85 85 86 87 88 89 90 91 92
45 43 43 43 42 41 41 41 41 40 39 37 36 36 37 39 40 41 42 43 43 43 44 44 45 46 47 49 51 53 54 56 57 58 60 61 63 64 66 68 69 70 70 68 66 63 60 57 57 57 59 61 62 64 65 66 67 68 69 70 72 72 73 73 74 74 74 75 76 77 78 79 81 81 82 82 82 82 83 83 84 85 86 86 87 89 90 91
43 41 40 41 41 41 41 41 39 38 37 36 36 37 38 40 41 42 42 43 43 43 44 45 46 47 49 51 53 54 55 57 58 59 61 62 64 66 67 68 68 67 65 62 59 57 56 57 59 60 62 63 64 65 66 67 69 70 70 71 72 72 72 72 71 71 71 72 73 73 75 77 79 79 80 81 82 82 83 84 84 85 86 86 87 89 90 92
42 41 40 41 41 41 41 40 38 37 36 35 36 37 38 39 40 41 42 42 43 44 44 46 47 49 51 52 54 55 57 58 59 61 62 64 65 66 66 65 63 60 57 56 56 57 58 60 61 62 63 64 65 67 68 68 68 69 69 69 69 69 69 69 69 69 69 70 71 72 72 75 78 79 79 80 82 82 83 84 85 86 86 87 88 89 91 92
41 41 41 41 41 40 39 38 36 36 35 35 36 37 38 38 40 41 42 43 43 44 46 47 49 50 52 54 55 56 58 59 60 62 63 64 64 63 61 58 56 54 54 55 57 59 60 60 61 63 64 65 66 66 66 65 65 65 65 65 66 67 67 68 68 69 69 69 70 71 71 73 76 77 78 79 79 81 82 83 84 85 86 86 88 89 90 92
42 41 41 40 40 39 38 37 36 36 35 36 37 37 38 39 41 42 42 43 44 45 47 48 50 51 53 55 56 57 58 60 61 61 62 61 59 57 54 52 53 54 56 57 58 60 61 62 62 62 62 62 62 62 62 61 62 63 63 63 64 65 65 66 66 67 67 67 68 68 68 70 72 73 74 75 76 77 78 79 80 82 83 84 85 87 88 89
42 41 40 39 39 38 38 37 37 37 38 38 39 39 40 40 41 42 43 44 45 46 48 49 51 52 54 55 57 58 59 59 59 59 57 54 52 51 51 52 54 55 57 58 59 60 60 60 59 59 58 58 58 59 59 58 59 60 61 61 61 62 62 63 63 63 64 64 64 64 63 65 68 68 70 71 71 72 73 74 76 77 78 80 81 83 84 86
42 41 40 39 39 38 38 38 38 39 40 40 41 41 41 42 42 42 43 45 46 47 49 50 52 53 54 56 56 57 57 56 55 52 50 49 49 50 52 54 55 56 57 58 58 58 57 56 55 55 54 54 55 55 55 55 55 56 56 57 58 59 59 59 59 60 61 61 62 61 59 61 64 65 67 69 69 70 70 72 73 74 76 77 79 80 82 84
41 41 40 40 39 39 40 40 40 41 41 41 42 42 42 42 43 44 44 46 47 49 50 51 52 53 54 54 54 54 52 50 48 47 47 49 50 52 53 54 55 55 55 55 54 54 53 52 52 51 50 50 50 51 51 51 51 52 52 53 54 55 55 55 55 55 56 57 59 59 56 57 61 62 65 67 68 69 69 70 71 73 74 76 77 79 81 82
40 40 40 40 40 41 41 42 43 43 43 43 43 43 43 43 44 44 45 47 48 49 50 51 51 51 51 51 50 48 46 44 45 46 48 50 51 52 53 53 53 52 52 51 50 49 48 47 46 46 46 45 46 46 47 47 47 47 48 48 49 50 52 52 52 50 52 54 57 59 55 56 59 60 62 64 66 68 68 69 70 71 73 75 76 78 80 82
38 38 38 39 40 41 42 43 43 44 44 44 43 43 43 44 44 45 46 47 47 48 48 48 48 47 46 45 43 42 42 44 45 47 48 50 51 51 51 50 49 47 46 45 44 44 43 43 42 42 41 41 41 42 42 43 44 45 45 46 47 50 51 53 53 51 53 55 58 60 57 58 60 60 60 61 63 65 67 68 68 70 71 73 75 77 79 81
35 36 37 38 39 40 40 41 42 42 42 42 42 42 42 43 44 44 45 45 45 45 45 44 43 42 40 39 40 41 43 45 46 47 48 49 49 48 46 44 43 42 41 40 40 40 40 39 39 38 37 37 38 39 40 41 43 45 47 49 50 53 54 55 54 53 53 55 59 61 60 61 64 64 63 63 64 65 66 68 69 70 71 72 74 76 78 79
33 35 36 36 37 37 37 38 38 38 39 39 39 40 40 41 42 42 42 41 41 40 40 39 38 37 37 38 40 42 43 44 46 46 45 44 43 41 40 39 38 38 37 36 36 35 35 36 36 36 37 39 40 42 44 46 47 49 51 52 52 53 56 58 58 56 55 55 60 63 62 64 69 70 69 68 69 69 69 71 72 73 73 74 76 77 79 80
32 33 34 34 34 34 34 34 34 34 35 35 36 37 38 38 38 37 37 36 36 35 34 34 34 36 37 39 40 41 42 43 42 41 39 38 37 36 35 35 34 33 32 32 32 32 33 34 36 38 41 43 45 47 49 50 52 53 54 55 56 55 57 60 61 61 61 58 60 64 63 65 70 71 72 72 72 72 72 74 75 75 75 76 77 79 80 81
29 30 30 31 30 31 31 31 31 31 32 32 33 33 33 33 32 32 31 30 30 30 31 32 34 36 37 39 40 40 40 38 36 35 34 33 32 31 31 30 30 30 29 30 31 33 34 37 40 42 45 47 49 51 53 54 55 57 58 59 60 60 59 62 64 64 65 63 61 64 64 65 69 72 73 73 73 74 75 77 77 77 77 78 79 80 81 83
25 26 26 26 26 27 27 27 27 27 28 28 28 28 27 27 26 26 26 26 28 30 32 33 35 36 37 37 37 36 34 32 31 30 30 29 28 27 27 27 28 29 30 32 34 36 38 41 43 46 49 51 53 55 57 58 59 60 62 62 63 63 62 62 64 65 67 67 63 63 64 66 69 72 73 74 74 76 77 79 80 80 80 80 80 81 83 85
21 21 22 22 22 22 22 22 22 22 22 22 22 22 21 21 21 23 24 26 29 30 32 33 34 35 34 33 31 29 28 27 26 26 26 25 25 25 26 26 27 29 32 35 38 40 41 44 47 51 53 55 57 59 60 62 63 63 64 65 65 66 66 64 64 64 66 69 68 65 64 66 70 72 73 74 75 77 79 80 80 80 80 80 81 83 84 86
16 16 16 16 16 16 16 16 17 17 17 16 16 16 17 19 21 23 25 27 29 30 31 32 31 30 28 27 26 25 24 23 23 23 23 24 25 26 27 29 31 32 34 38 41 43 45 48 51 54 57 59 60 62 63 64 65 66 67 67 68 68 69 69 68 66 66 69 72 70 65 64 69 72 73 74 76 77 79 80 80 79 80 81 82 84 85 86
11 10 10 10 10 11 11 11 11 11 11 11 13 15 17 20 22 24 25 26 28 29 29 27 25 23 22 22 22 20 20 20 21 22 23 25 27 29 31 33 35 36 38 41 45 47 49 52 55 58 60 61 63 64 64 65 66 67 68 69 70 70 71 72 71 70 69 68 72 74 69 65 68 72 74 76 77 78 79 79 78 79 80 82 83 85 86 88
7 6 6 6 6 6 6 6 6 7 9 11 14 17 19 20 22 23 25 25 25 24 22 20 19 19 18 18 18 18 19 20 21 23 26 28 30 32 34 36 38 40 42 45 50 52 54 57 59 60 62 63 64 64 65 65 66 68 69 70 72 72 72 72 73 73 72 70 72 76 75 70 70 73 76 78 78 78 78 77 77 79 81 82 84 85 87 88
5 5 4 4 3 2 2 4 6 8 11 13 15 17 18 20 22 23 22 21 18 17 17 17 16 16 16 16 16 18 20 21 23 25 28 30 33 36 39 41 42 44 46 50 54 56 58 60 61 62 63 64 64 65 66 67 68 70 71 72 73 73 73 73 74 75 74 72 73 76 77 74 72 75 78 78 78 78 77 77 78 79 81 82 83 85 86 87
8 7 6 4 2 1 3 6 8 10 12 13 15 17 19 20 20 19 17 15 14 15 15 15 14 14 14 16 17 20 22 24 26 29 31 33 37 41 44 47 49 50 52 55 57 58 60 61 62 62 63 65 66 67 68 68 69 71 72 73 74 75 75 75 76 77 76 74 73 76 78 75 72 76 80 79 78 78 78 78 79 79 81 81 83 83 84 85
9 7 4 2 2 4 6 8 9 10 12 14 16 17 17 16 15 13 11 11 12 14 13 12 13 14 16 18 21 23 26 29 33 36 39 41 44 47 50 52 54 56 57 58 58 58 60 61 62 63 65 66 68 69 69 70 71 73 74 74 76 77 78 78 78 78 77 75 74 76 78 77 73 74 79 79 78 78 78 79 79 80 81 81 82 83 83 84
7 5 3 3 4 6 7 8 9 11 12 14 14 14 13 10 9 9 10 10 11 11 10 11 13 15 18 21 23 26 29 33 37 40 43 46 49 51 53 55 56 58 59 61 61 60 61 63 64 65 66 67 69 70 72 73 74 75 77 76 76 77 78 78 79 79 78 74 74 77 80 80 78 76 78 78 77 77 78 79 80 81 81 82 83 84 84 83
5 4 3 3 4 5 7 8 10 11 12 11 10 9 8 7 7 10 11 9 8 9 10 12 14 17 20 24 28 33 36 38 41 44 47 49 52 53 55 55 56 58 59 62 64 63 63 65 66 67 68 69 70 72 74 75 77 78 80 80 79 79 78 78 79 80 79 75 75 79 81 81 82 82 81 80 79 78 79 80 81 82 82 83 84 83 83 83
3 2 2 3 5 6 8 9 9 9 8 7 6 6 7 8 9 10 10 8 8 10 12 15 19 22 26 30 35 38 41 44 46 48 50 51 52 52 53 54 55 56 58 61 64 65 65 66 67 68 69 70 71 74 75 77 80 82 83 85 85 85 83 82 82 82 80 77 78 82 82 81 83 84 84 82 81 81 81 81 81 82 82 83 83 83 82 82
1 1 2 4 6 7 7 7 6 5 4 5 7 8 8 10 10 9 9 9 11 13 16 20 25 29 33 36 39 42 44 47 48 49 50 50 51 52 53 54 56 57 59 61 64 66 66 67 68 70 71 73 75 76 78 80 82 85 87 89 91 92 92 91 90 88 84 81 81 85 85 84 85 85 84 82 82 82 81 81 81 81 82 82 82 82 81 81
1 2 4 5 6 5 5 4 4 4 6 9 9 9 9 10 9 9 10 12 15 18 22 27 31 35 38 40 43 45 46 47 48 48 49 50 52 53 55 56 57 59 61 63 65 68 69 70 71 73 75 77 79 81 83 84 86 88 90 92 94 97 98 97 97 95 92 87 85 86 87 87 88 86 84 83 82 82 82 82 82 81 81 82 81 81 81 81
2 3 4 4 4 4 4 5 6 8 10 11 10 10 10 9 9 11 14 17 20 24 29 33 36 38 41 43 44 45 46 46 47 48 49 50 52 54 55 57 58 60 62 64 66 69 73 74 75 78 80 81 84 86 88 89 90 91 93 95 96 99 100 100 100 99 97 94 90 88 87 88 90 87 85 85 84 84 84 83 83 82 81 81 81 81 81 81
2 3 4 5 5 6 7 8 9 11 12 11 10 10 10 10 12 15 18 22 26 30 33 36 38 40 42 43 44 44 44 45 46 48 49 51 53 54 56 58 59 61 64 66 68 70 74 78 80 81 83 85 87 89 91 93 94 96 97 98 99 100 101 102 101 100 99 97 93 91 89 89 90 88 86 86 84 83 83 82 81 80 80 79 79 78 78 79
4 5 7 7 8 9 10 11 12 13 12 11 11 11 11 13 16 19 23 27 31 34 36 38 39 41 42 43 43 43 44 45 46 48 50 52 53 55 58 60 62 64 66 70 72 73 75 79 82 83 85 87 89 92 94 96 97 98 99 101 102 102 103 105 106 105 103 100 95 93 93 93 93 91 89 87 86 84 83 83 82 81 79 77 76 76 75 76
7 8 9 10 11 12 12 14 15 13 11 11 12 12 13 17 20 24 27 31 34 36 37 38 40 41 42 42 43 44 45 46 47 49 51 53 55 57 59 62 65 67 69 72 74 76 77 79 83 85 87 90 92 94 96 98 99 101 102 103 105 106 106 107 109 110 109 106 100 96 96 97 95 94 93 91 90 89 87 86 85 82 80 78 77 75 74 74
10 10 12 13 14 14 14 15 14 11 12 13 13 14 17 21 24 28 31 34 36 36 37 38 40 41 41 42 43 44 45 46 48 50 52 54 57 60 62 65 67 70 72 73 76 78 80 82 85 88 91 93 95 96 98 100 101 103 104 106 107 109 109 108 109 111 111 110 106 99 98 101 99 97 96 95 94 92 90 88 87 85 82 80 79 78 76 74
12 12 14 15 15 16 16 14 12 12 14 14 14 17 21 24 28 31 33 34 35 36 37 39 40 40 41 42 44 45 46 47 49 51 53 56 59 62 65 67 69 72 74 76 78 80 82 84 86 90 93 96 98 100 101 103 104 105 106 108 109 111 111 110 109 110 111 111 109 104 100 102 102 100 99 97 96 94 92 91 89 87 84 82 80 80 78 76
14 15 16 16 16 16 15 13 13 15 15 15 17 21 23 27 30 32 33 34 35 36 37 38 39 40 42 44 45 46 47 49 50 52 55 58 61 64 67 69 71 73 75 78 80 82 84 86 88 91 95 97 100 102 104 105 106 107 108 110 111 113 114 114 112 111 112 112 110 106 102 102 102 100 100 99 98 97 96 93 90 87 85 83 81 80 78 77
17 17 17 17 16 15 15 14 15 16 16 17 20 23 25 29 31 32 33 34 35 36 36 36 38 40 42 44 45 46 48 49 51 53 57 61 63 66 68 70 72 74 76 79 82 84 86 87 89 92 96 99 102 103 105 106 107 109 111 112 113 115 116 117 116 114 113 113 111 107 103 103 102 101 100 100 99 99 97 94 90 86 84 82 81 79 78 76
18 18 18 18 16 15 16 15 15 16 18 20 22 24 27 29 30 31 32 33 34 34 34 36 38 40 42 43 45 46 48 50 52 56 59 63 65 67 69 71 73 76 78 80 83 86 88 89 89 91 94 97 100 103 105 107 109 111 113 114 115 117 117 118 118 116 114 113 113 109 104 104 104 102 100 100 98 97 95 93 90 86 83 81 79 78 76 75
18 19 19 17 17 17 16 15 17 19 20 21 22 25 27 28 30 31 32 33 33 33 34 36 38 41 42 44 45 47 49 51 54 58 61 63 66 68 70 72 74 77 79 82 84 87 90 93 93 94 95 97 100 103 105 108 110 112 114 116 117 118 119 119 119 118 115 114 115 113 107 103 103 101 99 98 96 94 93 91 89 87 84 82 79 77 75 72
18 19 18 17 18 18 15 16 19 19 20 21 22 24 26 28 29 30 31 32 32 33 35 37 40 41 43 45 47 48 51 53 56 60 62 64 67 69 70 72 75 78 81 83 86 88 91 95 97 100 102 105 107 110 112 112 113 114 116 117 119 120 121 122 121 121 119 115 114 115 111 105 102 101 98 96 94 92 90 88 86 85 83 81 79 77 74 72
19 19 18 17 18 17 16 17 19 19 20 21 21 23 25 27 28 29 30 31 32 34 36 39 41 42 44 46 48 50 52 55 58 61 64 66 69 70 71 73 75 79 82 85 87 89 91 94 98 101 105 108 112 114 116 117 117 117 117 119 120 121 122 123 124 123 122 118 114 113 112 108 103 101 100 98 96 93 90 88 85 83 82 80 78 76 75 75
19 18 18 19 18 17 17 18 18 18 19 19 20 22 24 25 27 28 29 30 32 34 37 39 41 42 44 46 49 51 54 56 60 63 66 68 70 72 73 75 77 80 83 85 87 89 91 93 97 101 104 107 111 114 117 119 120 120 120 121 122 123 123 124 125 124 123 121 116 112 111 109 106 104 103 101 98 95 92 89 86 84 83 82 80 79 77 78
19 19 19 19 18 17 17 17 17 17 17 18 19 21 22 24 25 27 28 30 31 34 36 39 40 42 43 45 47 51 55 58 62 64 66 68 70 73 75 77 79 81 83 85 87 90 92 93 95 99 102 106 111 114 117 119 121 121 122 123 124 125 125 125 125 124 123 122 120 116 113 112 109 107 105 104 101 97 94 91 90 88 87 86 83 80 77 77
19 19 18 18 17 16 16 16 16 16 16 17 18 19 21 23 24 26 28 29 30 33 36 38 40 42 43 44 47 51 54 58 61 64 66 67 69 73 75 78 81 82 83 85 88 90 93 93 95 98 101 105 109 113 116 119 120 121 123 124 124 125 127 126 125 124 123 122 122 120 117 114 112 108 106 105 102 99 96 95 93 92 89 86 83 79 76 77
19 18 18 17 16 15 15 15 15 16 16 16 16 17 19 21 23 25 27 28 30 33 36 39 41 42 43 46 49 53 56 59 61 64 66 68 70 73 77 80 84 85 85 86 88 90 93 94 95 98 101 104 107 111 115 119 121 121 122 123 124 125 127 128 127 126 125 124 123 122 119 115 112 108 106 105 104 101 97 95 93 90 88 85 81 77 76 77
18 17 16 16 15 14 15 14 14 15 15 15 15 15 17 19 21 24 26 28 30 34 37 40 41 43 45 47 51 55 58 60 62 65 67 69 72 75 78 82 85 86 86 87 88 91 94 95 96 98 101 105 108 111 115 118 120 122 122 123 124 125 128 130 130 131 130 129 126 124 120 117 113 109 107 107 106 103 99 95 92 90 88 85 81 78 77 78
17 16 15 15 14 14 14 14 14 14 14 14 14 14 15 17 19 23 25 27 31 35 38 40 42 43 45 49 53 56 58 60 63 66 69 71 74 77 79 82 85 85 86 87 89 92 95 97 99 100 102 105 109 113 117 119 120 123 125 127 128 128 130 132 133 134 134 133 130 127 123 119 116 112 110 109 108 105 101 98 95 93 91 88 84 81 78 79
Wind_Direction
218 221 224 227 229 231 233 235 236 237 239 242 244 247 250 252 254 256 258 261 263 265 268 270 273 274 273 273 273 273 274 275 276 278 279 280 281 282 283 284 285 286 286 287 287 288 288 289 289 290 291 291 292 293 294 295 295 296 296 297 297 298 298 298 298 297 297 296 295 294 295 294 293 292 291 290 289 288 287 286 285 284 283 282 282 281 280 279
217 221 224 227 229 232 234 236 238 240 242 244 247 250 253 255 256 258 260 262 265 267 269 271 273 273 273 273 273 274 275 276 278 279 281 281 282 283 284 285 286 286 287 288 288 289 290 290 291 292 293 294 295 296 296 297 298 298 299 299 299 299 299 299 299 298 298 297 295 295 294 293 291 290 290 289 289 288 287 287 286 285 284 283 282 282 281 280
215 220 223 225 228 230 232 235 238 240 243 246 249 251 254 255 257 259 261 263 265 267 269 270 271 272 273 273 274 275 277 279 280 282 282 283 283 284 285 286 287 287 288 289 290 291 292 293 294 295 296 296 297 298 298 299 300 300 300 300 300 300 300 299 299 298 297 296 294 293 293 292 290 289 288 288 287 287 287 286 285 285 284 283 282 282 281 280
213 218 222 225 227 229 231 233 235 239 242 245 248 250 252 254 257 259 261 263 265 267 268 269 270 272 273 274 275 277 279 282 283 283 283 284 285 285 286 287 288 289 290 291 292 293 294 296 296 297 298 298 299 300 300 301 301 301 301 301 300 299 299 298 297 296 295 294 293 292 292 291 289 288 287 287 286 286 285 285 284 284 283 282 282 281 281 280
214 217 221 224 226 228 230 232 234 237 241 243 246 249 251 254 257 259 261 263 264 266 267 268 270 272 274 275 278 280 283 284 284 284 285 286 286 287 288 289 290 291 292 294 295 296 297 298 298 299 300 300 301 302 302 302 301 301 300 299 298 297 296 295 295 294 293 293 292 292 291 290 289 288 287 286 285 285 284 283 283 282 282 281 281 280 280 279
217 218 221 224 226 228 230 232 235 238 240 243 247 249 252 255 257 259 261 262 265 266 267 268 270 273 275 278 281 284 285 285 285 286 287 287 289 289 290 291 292 294 295 296 297 298 299 299 300 301 301 302 302 302 301 300 300 299 298 297 296 295 295 294 294 293 293 292 292 291 291 290 289 288 287 287 286 286 285 284 283 283 282 281 281 280 279 279
218 219 221 225 227 230 232 234 236 239 242 245 248 251 253 255 257 259 260 262 264 266 267 269 272 275 278 281 284 285 286 287 287 288 289 289 290 291 292 293 295 296 297 298 299 299 300 300 301 301 301 301 301 300 299 299 298 298 297 297 296 295 295 295 294 294 293 293 292 291 291 290 289 289 288 288 287 286 285 284 284 283 282 282 281 281 280 279
218 219 221 224 227 230 233 235 237 240 243 246 249 251 253 255 257 259 260 262 264 266 268 271 274 277 280 283 285 286 288 288 289 289 290 291 292 293 295 296 297 298 299 299 300 300 301 301 301 301 301 301 300 300 299 299 299 299 298 298 297 296 296 295 294 294 293 293 292 292 291 290 290 289 289 288 287 286 285 285 284 283 283 282 282 281 281 280
216 218 220 222 226 229 232 235 238 241 243 246 249 251 253 255 257 258 260 262 264 267 270 273 277 279 282 284 286 288 289 289 290 291 292 293 295 296 297 298 299 300 300 300 301 301 301 302 302 302 301 301 301 301 300 300 300 299 299 298 297 296 295 295 294 293 293 292 291 291 290 290 290 289 289 289 289 288 287 286 285 284 283 283 282 281 281 280
216 217 219 220 223 228 232 235 238 241 243 245 248 250 252 254 256 257 260 262 265 269 272 276 279 282 285 287 289 290 290 291 292 293 294 296 297 298 299 300 300 301 301 302 302 302 302 302 302 302 302 301 301 301 300 300 300 299 298 297 297 296 295 295 294 293 292 292 292 291 291 291 291 291 290 290 289 289 288 287 286 286 285 284 284 283 282 281
218 218 218 220 222 226 230 234 237 240 243 245 247 249 252 254 256 258 261 264 268 272 276 279 282 285 287 289 290 291 291 292 294 295 297 298 299 300 300 301 301 302 302 302 302 302 302 302 302 302 302 302 302 301 301 300 299 298 297 297 296 296 296 295 295 295 294 294 293 293 293 292 291 291 290 290 289 289 288 288 288 287 287 286 285 284 283 282
221 221 221 221 222 225 228 232 235 238 241 244 247 250 253 256 258 261 264 268 272 276 280 283 285 287 288 290 291 291 293 294 296 297 299 300 300 301 301 302 302 302 302 302 302 303 303 303 304 304 303 303 301 301 300 299 299 299 298 298 298 298 298 297 297 297 296 296 295 294 294 294 293 292 291 290 290 289 289 288 288 287 287 286 285 284 283 282
223 224 224 224 225 227 229 231 235 239 242 245 248 251 255 259 262 264 268 272 276 280 283 285 287 288 289 290 291 293 295 297 298 299 300 300 301 301 302 302 302 302 303 303 304 304 304 304 304 304 303 302 301 301 301 301 301 301 302 302 301 301 301 300 300 300 300 299 297 296 296 294 293 292 291 290 289 289 288 287 287 287 286 286 285 284 284 283
223 225 226 227 229 231 233 235 238 241 244 247 251 254 259 263 266 269 273 277 280 283 285 286 287 288 290 292 294 296 297 299 299 300 300 300 301 302 302 303 303 304 304 305 305 305 305 305 305 305 305 305 305 305 305 306 306 306 306 306 306 306 305 304 304 303 302 300 297 296 295 293 292 291 291 291 290 289 288 288 288 287 287 286 286 285 285 284
221 224 226 229 231 234 236 238 241 244 247 250 254 258 262 266 270 273 276 280 282 284 286 287 289 290 292 294 296 297 298 299 299 300 301 302 302 303 303 304 304 305 306 307 307 307 307 307 308 309 309 310 310 310 311 312 312 312 312 312 311 310 308 306 305 304 302 301 299 297 296 295 293 293 293 294 294 293 292 291 290 289 289 288 288 287 287 286
219 223 226 229 232 235 237 240 243 246 250 253 256 261 265 268 272 275 279 281 283 285 287 289 290 292 294 296 297 298 298 299 300 301 302 302 303 304 305 306 307 308 309 309 309 310 311 312 313 314 315 316 317 318 318 319 319 318 318 316 315 313 311 310 309 309 309 308 306 303 302 300 298 297 296 297 296 296 295 294 293 292 291 291 290 289 289 288
217 221 225 229 232 235 238 241 244 247 251 255 259 262 266 270 274 277 280 282 284 287 289 291 293 294 296 297 297 298 299 300 301 302 303 304 306 307 308 309 310 310 311 312 313 315 316 318 319 321 323 324 324 325 325 326 325 324 322 321 321 320 320 319 319 320 318 316 312 309 310 308 304 302 301 300 299 299 298 297 295 294 293 292 291 290 290 289
216 220 224 227 231 235 238 242 245 248 252 256 260 264 268 272 275 278 281 284 286 289 291 293 294 295 296 296 298 299 301 302 303 305 306 308 309 310 310 311 313 314 316 319 321 323 325 327 328 329 328 328 329 330 330 331 330 330 330 330 331 329 327 325 325 325 323 321 317 314 316 315 311 309 308 307 305 304 303 301 299 298 296 295 294 294 293 292
214 218 222 227 231 235 239 242 246 250 254 258 263 266 270 274 277 280 283 286 289 291 293 294 294 295 296 298 300 301 303 305 307 309 310 310 311 312 314 317 320 323 326 328 330 332 332 333 333 332 333 335 336 337 337 337 337 337 336 336 336 334 330 328 328 327 325 324 320 319 321 319 314 313 313 311 310 309 307 305 303 302 301 300 299 298 297 296
212 216 221 226 230 235 239 244 248 252 257 260 264 268 272 276 280 284 287 290 291 292 293 294 295 297 299 300 302 304 307 309 310 311 313 315 318 320 323 326 329 331 334 335 336 336 335 336 338 339 341 342 343 343 343 343 342 341 340 339 338 337 334 331 330 329 327 326 323 321 322 319 314 313 313 312 311 310 309 307 305 304 304 303 302 301 301 299
210 215 220 225 230 235 240 245 250 254 259 263 268 272 277 281 284 287 290 291 292 292 293 294 296 298 301 304 306 309 311 312 315 318 322 325 327 329 332 334 336 337 339 339 339 340 341 343 344 346 347 347 347 347 347 347 346 344 343 342 340 340 338 333 332 331 327 326 325 322 322 318 314 313 312 312 312 311 309 307 306 306 306 305 305 304 302 298
210 215 220 225 230 236 241 247 253 258 263 268 273 278 282 285 288 289 291 291 291 292 294 296 299 303 306 310 313 315 318 322 325 328 330 331 334 336 337 339 341 342 343 344 345 346 347 348 349 350 350 350 350 350 350 349 349 347 345 344 342 341 340 336 333 331 327 325 324 322 322 319 315 314 313 313 312 310 308 307 307 307 307 307 306 303 299 297
210 215 221 227 234 241 247 253 259 264 269 274 279 283 286 288 289 289 290 290 292 295 299 303 308 311 314 317 321 324 328 332 332 332 335 337 339 341 340 341 343 345 347 349 350 351 351 352 353 354 353 353 352 352 352 351 349 349 346 345 344 341 340 338 335 332 327 323 323 324 325 322 317 314 313 312 311 308 307 307 308 308 309 307 304 300 299 298
210 218 225 232 240 246 253 259 264 270 274 280 284 287 288 288 288 289 292 294 299 304 308 312 316 319 322 326 330 335 336 337 338 339 341 342 343 344 345 347 348 348 351 353 354 355 355 356 357 356 356 354 354 353 352 351 349 348 346 345 344 342 340 339 337 334 329 325 323 325 328 324 318 315 313 311 309 309 308 309 310 310 308 305 302 302 301 300
204 213 223 233 241 249 256 262 267 274 280 285 287 287 286 287 289 293 298 304 309 313 316 320 323 328 332 335 338 340 339 341 344 343 344 347 349 350 351 353 354 354 356 358 359 359 358 359 359 358 357 355 354 353 352 351 349 348 347 345 344 343 341 338 336 335 332 328 324 325 328 326 321 317 314 311 310 310 310 311 311 309 307 305 305 304 303 302
188 201 215 226 235 243 251 261 273 280 283 283 283 284 286 290 296 302 308 313 318 320 323 328 334 339 341 341 341 342 343 347 348 348 352 355 355 355 356 358 359 359 360 1 2 2 0 0 359 358 357 355 353 353 352 351 350 348 347 346 344 343 341 339 337 335 334 330 327 328 329 328 326 319 314 313 312 312 312 313 312 310 308 308 307 305 304 302
161 166 170 175 181 202 244 270 278 277 277 279 283 288 294 301 306 312 317 320 325 331 336 342 348 348 345 344 345 348 352 353 353 355 358 358 359 360 1 2 2 3 4 4 4 3 1 360 359 357 356 355 353 352 352 351 350 349 348 347 345 344 342 341 338 336 335 333 331 331 329 330 328 319 314 315 315 316 317 316 313 311 310 308 306 305 303 302
129 129 131 133 146 226 260 266 269 274 280 288 295 301 307 312 317 322 325 328 339 349 354 356 355 349 346 349 354 358 359 358 359 0 0 1 4 5 6 6 5 6 5 5 5 3 0 359 358 357 356 355 354 353 352 352 350 349 349 348 346 345 344 342 341 339 337 335 334 332 329 330 329 320 317 318 319 320 319 316 314 312 311 308 307 305 303 303
117 119 125 147 210 241 254 265 276 287 296 303 308 313 318 322 328 332 336 347 360 4 5 3 357 354 357 1 4 5 5 7 8 9 9 9 9 9 9 8 7 5 5 3 4 3 0 359 358 357 356 355 354 354 353 352 351 350 350 349 348 347 346 344 343 341 339 338 335 333 331 330 328 322 320 322 323 322 320 317 316 313 311 310 308 306 306 305
118 133 162 201 233 255 271 286 298 304 308 313 318 325 329 336 344 351 3 11 10 9 8 5 3 2 5 6 8 9 10 13 14 14 14 13 12 11 10 9 6 5 3 2 2 3 1 359 359 358 357 356 354 353 353 352 351 350 350 351 349 348 347 345 344 343 342 341 337 334 333 331 328 325 324 326 325 323 321 319 317 315 314 312 311 310 309 309
142 165 199 237 268 286 298 305 309 312 319 326 333 343 351 5 15 19 27 24 11 13 11 7 7 6 9 11 14 16 16 16 16 15 15 14 12 11 9 9 7 5 4 2 1 3 3 0 360 359 358 357 355 354 354 353 352 351 351 351 351 350 349 347 346 346 345 343 339 336 336 333 329 328 329 329 327 325 323 321 319 318 316 314 313 312 311 310
157 192 253 289 302 306 310 312 319 328 338 349 7 24 31 38 40 38 40 32 19 18 13 11 13 14 17 19 20 21 19 19 18 16 16 14 12 11 10 10 9 8 7 6 2 2 4 2 1 1 359 357 356 355 355 354 353 352 351 351 351 351 351 350 349 350 349 346 341 338 338 335 331 330 331 331 328 327 325 323 321 319 317 316 315 314 313 311
157 284 311 317 314 316 322 330 345 360 22 46 55 54 50 52 54 50 44 34 25 20 17 18 20 22 23 23 22 22 21 20 18 17 15 13 12 11 10 10 10 10 9 9 6 3 4 4 2 2 1 358 357 357 356 355 354 353 352 352 352 351 353 352 351 351 351 348 343 341 340 336 332 333 333 332 330 328 326 324 322 321 320 318 317 316 314 313
333 323 323 322 326 340 355 13 42 64 73 73 69 63 61 63 62 51 41 32 26 23 23 25 26 27 26 25 24 22 21 20 18 17 15 13 12 11 11 11 11 11 10 11 10 5 3 5 4 3 2 0 359 358 357 357 356 355 354 353 353 352 353 352 351 351 351 351 347 344 342 337 334 336 335 333 331 330 328 327 325 324 322 321 319 318 317 315
328 326 333 349 16 42 61 77 89 87 81 78 74 71 70 66 56 44 37 32 29 28 29 30 29 29 27 26 25 23 21 20 17 16 16 14 14 13 12 13 12 12 12 11 12 9 4 4 5 4 3 2 0 359 358 357 357 356 355 354 354 354 353 353 352 350 351 352 349 346 344 338 336 339 337 334 334 332 331 329 327 326 325 324 323 321 319 317
348 5 32 59 78 89 95 97 93 86 83 83 80 75 69 58 48 41 36 33 32 32 32 33 31 30 28 27 26 23 22 20 18 17 17 16 15 14 13 14 13 13 12 11 12 12 8 5 5 5 4 3 2 0 359 359 358 357 356 355 355 355 354 353 352 351 351 352 351 347 344 339 338 340 338 336 335 334 332 330 329 328 327 326 324 321 319 318
50 69 83 96 102 102 101 97 90 87 90 89 80 72 61 51 44 39 37 35 35 35 35 34 32 30 29 28 26 24 22 21 19 19 18 16 16 16 14 14 13 13 12 11 10 12 11 8 5 6 5 4 4 2 1 360 358 357 357 356 355 355 355 353 352 352 351 352 353 350 345 341 341 341 339 338 337 335 334 332 331 331 329 327 324 322 320 319
85 97 105 107 105 102 98 93 91 94 94 85 75 65 54 47 43 40 38 37 37 37 36 35 33 32 30 28 26 24 23 22 21 20 19 17 16 16 15 14 13 12 12 12 10 10 12 11 7 6 6 5 5 3 2 1 359 358 357 356 355 355 356 355 353 352 351 352 354 353 347 343 343 343 341 340 339 338 337 335 334 333 331 329 326 324 322 320
104 111 110 107 103 99 94 94 99 99 89 79 68 57 50 46 43 41 40 39 39 39 37 36 34 32 31 29 27 25 24 24 22 21 19 18 17 16 15 14 13 12 12 12 11 10 12 13 9 7 7 6 5 4 3 2 0 359 358 357 356 356 356 357 355 353 351 351 353 355 350 344 344 345 342 342 341 339 338 336 336 335 334 331 328 326 325 323
114 112 107 105 102 98 98 103 104 92 80 71 60 53 50 47 45 43 41 41 41 39 38 36 35 33 31 29 27 26 25 24 22 21 20 19 18 16 15 15 14 13 12 11 12 11 12 13 12 9 8 7 6 5 4 2 1 360 359 358 357 356 356 357 357 354 352 351 352 354 352 346 345 346 344 343 342 340 339 338 338 338 335 332 330 328 327 325
114 109 106 103 101 103 106 105 93 83 74 64 56 52 49 47 46 44 43 43 42 40 38 37 34 33 30 28 28 27 25 23 21 21 20 19 18 16 15 15 14 13 12 11 11 11 11 13 13 11 9 8 8 6 5 3 2 0 360 359 358 357 356 357 358 357 354 352 352 354 352 348 347 347 345 344 343 342 341 340 340 338 335 333 332 330 328 326
111 108 106 103 105 108 105 96 86 78 68 60 56 52 50 48 47 45 44 44 42 40 39 36 34 32 29 28 28 27 25 23 22 21 19 18 18 17 15 15 14 13 13 12 11 10 10 12 14 13 11 9 9 7 6 4 3 1 0 360 359 358 357 357 358 358 356 352 352 354 353 349 348 348 346 345 345 343 341 341 340 339 336 334 333 331 329 328
111 109 107 108 111 106 97 90 81 72 65 59 55 53 51 49 47 47 45 44 42 40 38 35 32 31 30 30 29 27 24 23 22 20 19 18 17 16 15 14 14 13 12 12 11 10 9 9 12 12 11 10 9 8 7 5 4 2 1 0 359 358 358 358 357 358 357 354 352 354 355 351 349 349 348 346 345 343 341 341 340 338 337 335 334 332 330 329
114 110 110 113 109 99 93 86 76 68 64 59 55 53 52 50 48 47 45 43 41 39 36 34 31 30 30 31 29 27 25 24 22 20 19 18 16 16 15 14 13 13 12 12 11 10 9 8 8 9 9 9 9 8 7 7 5 4 2 1 0 359 358 359 358 357 358 357 353 353 355 354 351 350 348 347 346 344 343 342 341 339 338 337 335 333 331 330
116 114 114 112 103 95 88 78 72 68 63 59 56 54 53 51 49 47 44 42 40 38 35 32 30 29 30 30 28 27 26 23 21 20 18 17 16 15 14 13 13 12 12 11 11 10 9 8 7 8 8 8 9 8 8 7 6 5 3 2 1 360 359 359 358 357 358 358 355 353 354 354 352 350 349 348 347 345 345 344 342 340 339 338 336 335 333 332
117 117 115 107 98 91 81 74 71 67 62 59 56 55 54 52 49 46 43 41 38 36 34 30 29 29 28 27 26 25 24 22 21 20 18 17 16 14 13 12 11 11 10 10 10 10 10 9 8 9 9 9 9 9 8 7 6 5 4 3 2 1 360 359 359 358 358 358 357 354 353 354 353 352 350 349 348 347 347 346 344 342 340 339 338 337 337 336
117 116 111 103 95 86 77 71 69 67 63 60 57 56 55 51 48 45 42 39 36 34 31 29 28 29 27 26 24 23 22 21 20 19 18 16 15 14 13 12 10 10 9 9 9 9 9 10 9 9 10 9 9 9 8 7 6 6 4 3 2 1 0 0 360 359 358 358 358 357 354 354 354 353 352 350 349 349 348 348 346 344 343 343 342 341 340 339
117 112 106 98 89 80 74 70 68 67 63 60 58 57 54 50 46 42 38 36 34 31 29 28 27 27 27 25 24 23 21 20 19 18 17 15 14 13 12 11 9 8 8 7 7 7 8 9 10 9 9 9 9 9 9 8 7 6 5 4 3 2 1 1 1 359 359 358 357 358 357 356 356 355 353 351 350 350 350 349 348 347 346 345 344 342 340 339
116 111 103 93 85 78 72 68 66 65 61 59 58 57 54 48 42 38 35 33 31 29 28 26 26 26 25 24 24 22 21 20 19 17 16 15 14 13 11 10 9 8 7 7 6 6 6 8 9 9 9 9 9 9 8 8 7 6 5 4 4 2 1 1 1 0 360 359 358 359 358 357 357 356 354 352 351 351 351 351 350 348 347 346 344 342 341 340
116 109 100 90 83 75 68 65 63 63 60 57 58 57 52 45 39 34 32 31 31 28 25 25 24 24 24 23 22 20 19 19 18 17 15 14 13 12 10 9 9 8 7 7 6 5 5 6 8 9 9 9 9 9 9 8 7 6 6 5 4 3 1 1 1 1 0 1 0 360 359 358 357 357 355 353 352 352 353 352 350 349 348 346 345 343 342 342
115 106 96 89 81 71 65 62 61 61 58 56 57 55 49 42 35 32 31 31 29 25 23 23 23 23 23 22 20 19 18 16 15 15 14 13 11 10 9 9 8 8 7 6 5 5 5 6 7 8 9 9 9 9 9 8 7 6 6 5 4 4 3 1 2 2 1 1 1 1 360 359 358 358 357 355 354 353 353 352 351 349 349 348 347 345 344 343
111 101 92 86 77 68 64 61 59 57 54 53 56 54 47 39 32 30 31 30 27 24 22 23 22 22 22 20 19 18 16 15 14 13 12 11 10 9 9 8 7 7 6 6 5 5 5 5 6 7 8 9 9 10 9 8 8 7 6 5 4 4 4 3 2 3 3 2 2 1 0 360 359 359 358 357 355 353 353 353 352 351 351 350 348 346 345 345
Height
10710 10713 10715 10718 10721 10724 10727 10730 10732 10735 10738 10739 10740 10741 10743 10744 10746 10747 10747 10747 10748 10748 10747 10746 10745 10744 10743 10741 10740 10738 10737 10735 10734 10732 10731 10729 10728 10726 10724 10722 10719 10717 10714 10711 10709 10706 10703 10700 10696 10693 10690 10686 10682 10679 10674 10670 10666 10661 10657 10652 10648 10644 10640 10636 10633 10631 10628 10624 10619 10615 10616 10615 10609 10602 10600 10597 10594 10591 10588 10585 10582 10579 10577 10575 10572 10569 10566 10564
10709 10711 10714 10717 10720 10723 10727 10729 10732 10735 10737 10738 10739 10740 10741 10743 10744 10744 10745 10745 10745 10744 10744 10743 10741 10740 10739 10737 10736 10734 10733 10732 10731 10729 10727 10725 10724 10722 10720 10717 10715 10712 10710 10707 10704 10700 10697 10694 10690 10687 10683 10679 10675 10671 10666 10662 10657 10653 10649 10645 10641 10638 10634 10630 10627 10624 10621 10617 10611 10607 10607 10608 10604 10596 10592 10590 10586 10583 10579 10576 10573 10570 10567 10565 10562 10559 10556 10553
10708 10710 10713 10716 10719 10722 10726 10730 10732 10734 10736 10736 10737 10738 10740 10741 10742 10742 10743 10742 10742 10741 10740 10739 10737 10736 10735 10733 10732 10731 10730 10728 10727 10725 10723 10722 10720 10718 10715 10713 10710 10708 10705 10702 10698 10695 10691 10688 10684 10680 10676 10672 10667 10663 10658 10654 10650 10646 10642 10638 10635 10631 10628 10624 10620 10617 10614 10610 10604 10599 10597 10597 10595 10590 10586 10583 10579 10575 10571 10567 10564 10561 10557 10554 10551 10548 10545 10542
10706 10709 10712 10715 10718 10722 10726 10729 10731 10732 10733 10734 10735 10737 10738 10739 10739 10740 10740 10739 10738 10737 10736 10735 10733 10732 10731 10730 10729 10728 10727 10725 10724 10722 10720 10718 10716 10714 10711 10709 10706 10703 10699 10696 10693 10689 10685 10681 10677 10672 10668 10663 10659 10655 10651 10647 10643 10639 10636 10632 10628 10624 10621 10617 10613 10610 10606 10601 10597 10592 10588 10585 10584 10581 10578 10575 10572 10568 10563 10559 10555 10551 10548 10544 10541 10537 10534 10531
10705 10709 10711 10714 10717 10721 10724 10727 10729 10730 10731 10732 10733 10735 10736 10737 10737 10737 10737 10736 10735 10734 10732 10731 10730 10729 10728 10727 10726 10725 10724 10722 10720 10718 10716 10714 10712 10709 10707 10704 10701 10698 10694 10691 10687 10683 10678 10674 10669 10664 10660 10655 10651 10648 10644 10640 10636 10633 10629 10625 10621 10617 10614 10610 10606 10602 10598 10593 10588 10584 10579 10575 10571 10569 10566 10564 10562 10559 10554 10550 10545 10542 10538 10534 10530 10527 10523 10520
10703 10708 10711 10714 10717 10720 10723 10726 10727 10728 10730 10731 10732 10733 10734 10735 10735 10734 10734 10732 10731 10730 10729 10728 10727 10726 10725 10724 10723 10722 10720 10718 10716 10714 10712 10710 10707 10705 10702 10699 10696 10693 10689 10685 10680 10676 10671 10667 10662 10658 10653 10649 10645 10641 10637 10633 10630 10626 10622 10618 10614 10610 10606 10602 10598 10595 10590 10585 10580 10575 10570 10565 10561 10556 10553 10552 10551 10547 10542 10538 10534 10530 10527 10523 10519 10516 10512 10508
10702 10707 10710 10713 10717 10720 10722 10724 10725 10726 10728 10729 10731 10732 10732 10732 10732 10731 10730 10729 10727 10726 10726 10725 10724 10723 10723 10722 10720 10719 10717 10715 10713 10710 10708 10706 10703 10700 10697 10694 10691 10687 10683 10678 10674 10669 10665 10660 10656 10651 10648 10644 10639 10635 10632 10627 10623 10619 10615 10611 10606 10602 10598 10594 10591 10587 10582 10577 10572 10567 10561 10556 10550 10545 10541 10540 10539 10536 10530 10526 10523 10519 10515 10511 10507 10503 10499 10495
10702 10706 10710 10713 10716 10718 10720 10721 10723 10725 10726 10728 10729 10729 10729 10729 10728 10727 10726 10725 10724 10724 10723 10723 10722 10721 10720 10719 10718 10716 10714 10711 10709 10706 10704 10702 10699 10696 10692 10688 10685 10680 10676 10671 10667 10663 10658 10654 10650 10646 10642 10638 10633 10629 10625 10620 10616 10612 10607 10603 10598 10594 10590 10586 10582 10579 10574 10569 10564 10558 10552 10546 10539 10535 10531 10527 10526 10523 10518 10515 10511 10507 10503 10499 10495 10490 10485 10481
10702 10706 10709 10712 10714 10716 10717 10719 10721 10723 10725 10726 10726 10726 10726 10725 10725 10723 10722 10722 10722 10721 10721 10721 10720 10719 10718 10716 10714 10712 10710 10708 10705 10703 10700 10697 10694 10690 10686 10682 10678 10673 10669 10664 10660 10656 10652 10648 10644 10640 10636 10631 10626 10622 10617 10613 10609 10604 10599 10594 10590 10585 10581 10577 10574 10570 10566 10561 10555 10550 10545 10537 10529 10526 10522 10516 10512 10509 10505 10502 10498 10494 10490 10487 10482 10478 10472 10467
10702 10705 10707 10709 10712 10714 10715 10718 10720 10721 10723 10723 10723 10723 10722 10722 10721 10720 10720 10719 10720 10719 10719 10719 10718 10716 10715 10713 10711 10709 10706 10704 10701 10698 10695 10692 10688 10684 10680 10676 10671 10667 10663 10658 10654 10650 10646 10642 10638 10634 10629 10624 10620 10615 10610 10606 10601 10596 10592 10587 10582 10577 10572 10568 10564 10560 10557 10552 10547 10542 10537 10529 10521 10516 10512 10507 10502 10497 10492 10488 10484 10480 10476 10473 10469 10464 10458 10453
10700 10703 10705 10707 10710 10712 10714 10717 10718 10719 10720 10720 10720 10720 10719 10719 10718 10718 10718 10718 10718 10718 10717 10716 10715 10714 10712 10709 10707 10705 10702 10700 10697 10694 10690 10687 10682 10678 10674 10669 10665 10661 10657 10653 10649 10644 10641 10636 10632 10628 10623 10618 10612 10608 10603 10599 10594 10589 10584 10580 10575 10569 10564 10559 10555 10551 10547 10543 10537 10533 10529 10521 10512 10507 10502 10497 10493 10487 10482 10476 10472 10467 10463 10460 10454 10449 10444 10439
10698 10701 10703 10706 10709 10711 10713 10715 10716 10717 10717 10717 10717 10716 10716 10716 10716 10716 10716 10716 10716 10716 10715 10714 10712 10710 10708 10706 10704 10701 10699 10696 10693 10689 10685 10681 10676 10672 10668 10664 10660 10656 10651 10647 10643 10638 10634 10630 10626 10621 10617 10612 10606 10601 10597 10593 10587 10581 10576 10572 10567 10561 10556 10551 10547 10542 10538 10534 10528 10524 10521 10512 10503 10498 10491 10487 10483 10478 10473 10467 10462 10457 10453 10448 10442 10437 10431 10426
10697 10699 10702 10705 10707 10709 10711 10713 10713 10714 10714 10714 10714 10714 10714 10714 10714 10714 10715 10715 10714 10713 10712 10711 10709 10707 10705 10703 10700 10697 10694 10691 10687 10683 10679 10675 10670 10666 10663 10659 10655 10651 10646 10642 10637 10633 10628 10624 10620 10616 10612 10606 10600 10595 10591 10587 10581 10575 10570 10564 10559 10554 10549 10544 10539 10535 10529 10524 10519 10516 10514 10505 10496 10490 10483 10478 10475 10470 10465 10460 10454 10448 10443 10438 10431 10426 10419 10414
10695 10698 10701 10703 10706 10708 10709 10710 10711 10711 10711 10712 10712 10712 10712 10713 10713 10713 10713 10712 10712 10711 10710 10708 10706 10704 10702 10699 10696 10693 10690 10686 10681 10677 10673 10669 10666 10662 10658 10654 10650 10646 10641 10636 10631 10627 10623 10619 10615 10611 10607 10601 10595 10589 10585 10580 10575 10570 10564 10558 10552 10547 10542 10537 10532 10527 10522 10516 10511 10509 10508 10498 10489 10483 10475 10469 10465 10461 10456 10451 10446 10439 10433 10427 10421 10415 10409 10402
10694 10696 10699 10702 10704 10706 10707 10708 10708 10709 10709 10710 10710 10710 10711 10711 10711 10711 10711 10710 10709 10708 10706 10705 10703 10701 10699 10696 10692 10688 10684 10680 10676 10672 10668 10665 10661 10657 10654 10650 10645 10641 10636 10631 10626 10622 10618 10614 10610 10606 10602 10597 10591 10585 10579 10575 10570 10564 10559 10552 10546 10540 10535 10531 10528 10523 10515 10508 10501 10498 10499 10491 10481 10475 10468 10461 10455 10450 10446 10440 10435 10429 10422 10416 10409 10403 10397 10390
10692 10695 10698 10701 10703 10704 10705 10705 10706 10707 10707 10708 10708 10709 10709 10710 10710 10709 10709 10708 10707 10705 10704 10702 10700 10697 10694 10690 10687 10683 10679 10675 10671 10668 10665 10661 10657 10653 10649 10645 10640 10636 10632 10627 10622 10618 10614 10610 10606 10601 10597 10591 10586 10580 10574 10569 10564 10559 10554 10548 10542 10535 10529 10523 10520 10516 10508 10500 10491 10485 10487 10480 10472 10467 10460 10453 10447 10440 10435 10430 10424 10418 10411 10405 10398 10392 10385 10377
10692 10695 10697 10699 10700 10701 10702 10703 10704 10705 10706 10707 10707 10708 10708 10708 10708 10707 10707 10706 10704 10703 10701 10699 10696 10693 10689 10685 10681 10678 10675 10671 10668 10665 10661 10656 10652 10648 10644 10640 10637 10633 10629 10624 10620 10615 10610 10606 10602 10597 10592 10588 10583 10577 10571 10566 10560 10555 10550 10544 10538 10529 10522 10515 10510 10506 10499 10491 10482 10474 10474 10468 10459 10455 10451 10445 10438 10432 10425 10419 10413 10407 10401 10394 10387 10380 10373 10366
10691 10694 10695 10697 10698 10699 10701 10702 10703 10704 10705 10706 10707 10707 10707 10707 10706 10706 10705 10704 10702 10700 10698 10694 10691 10687 10684 10681 10678 10675 10671 10668 10665 10661 10656 10652 10648 10644 10641 10637 10634 10630 10625 10621 10616 10610 10606 10601 10597 10593 10589 10585 10580 10575 10569 10564 10558 10551 10544 10538 10532 10522 10514 10508 10504 10500 10494 10485 10474 10466 10463 10456 10445 10440 10437 10432 10426 10421 10414 10406 10399 10393 10388 10382 10375 10368 10360 10354
10689 10691 10693 10695 10697 10698 10699 10701 10702 10704 10705 10705 10706 10706 10706 10705 10704 10704 10703 10702 10699 10696 10693 10689 10686 10683 10680 10678 10675 10672 10668 10665 10661 10657 10653 10649 10646 10642 10638 10634 10630 10626 10622 10617 10613 10608 10603 10599 10594 10590 10585 10580 10575 10570 10564 10558 10552 10546 10539 10532 10527 10520 10510 10501 10497 10492 10488 10482 10468 10458 10455 10446 10433 10426 10422 10418 10412 10407 10401 10393 10386 10379 10374 10368 10360 10353 10346 10339
10687 10689 10692 10694 10695 10697 10699 10700 10702 10703 10704 10705 10705 10704 10704 10704 10703 10702 10700 10698 10694 10691 10688 10685 10683 10680 10678 10675 10672 10669 10665 10662 10658 10655 10651 10647 10643 10639 10635 10631 10627 10623 10619 10615 10611 10607 10602 10597 10592 10586 10581 10575 10569 10564 10558 10553 10546 10540 10534 10527 10522 10516 10507 10496 10490 10483 10477 10475 10466 10453 10449 10440 10427 10418 10411 10406 10400 10394 10387 10380 10373 10367 10361 10355 10347 10339 10332 10325
10686 10689 10691 10693 10695 10697 10699 10700 10701 10702 10703 10703 10703 10703 10703 10702 10701 10698 10696 10693 10690 10687 10685 10683 10680 10678 10675 10672 10669 10666 10663 10660 10656 10652 10649 10645 10641 10637 10633 10629 10625 10621 10617 10613 10608 10604 10599 10593 10588 10582 10577 10571 10566 10560 10554 10548 10542 10535 10528 10522 10515 10509 10503 10491 10482 10476 10466 10465 10461 10450 10444 10435 10421 10412 10403 10396 10390 10382 10375 10366 10360 10355 10348 10341 10334 10327 10318 10310
10687 10689 10691 10693 10695 10697 10698 10700 10701 10701 10702 10702 10702 10701 10700 10699 10696 10694 10692 10689 10687 10685 10683 10680 10678 10676 10673 10669 10666 10663 10660 10657 10653 10650 10646 10643 10639 10635 10632 10628 10624 10619 10615 10610 10605 10600 10595 10589 10584 10578 10573 10567 10561 10555 10549 10543 10537 10530 10522 10516 10509 10502 10498 10489 10477 10469 10458 10453 10453 10447 10440 10429 10416 10405 10395 10387 10380 10371 10363 10355 10349 10342 10336 10329 10321 10313 10305 10296
10688 10690 10692 10694 10695 10697 10698 10699 10700 10700 10700 10700 10700 10698 10697 10695 10692 10690 10689 10686 10684 10682 10680 10678 10675 10673 10670 10667 10664 10661 10658 10655 10652 10648 10645 10641 10638 10634 10630 10626 10623 10618 10613 10607 10602 10597 10592 10586 10580 10575 10569 10563 10557 10550 10544 10537 10530 10525 10518 10511 10505 10496 10490 10486 10477 10468 10455 10443 10440 10440 10436 10424 10409 10398 10388 10379 10372 10362 10353 10346 10339 10333 10325 10318 10309 10300 10291 10282
10688 10690 10692 10694 10696 10697 10698 10698 10699 10699 10698 10698 10696 10695 10693 10691 10689 10688 10687 10684 10682 10680 10678 10676 10673 10670 10668 10665 10663 10660 10657 10654 10651 10647 10644 10640 10636 10632 10628 10623 10619 10615 10610 10604 10599 10593 10588 10583 10577 10571 10565 10558 10552 10546 10539 10532 10525 10519 10512 10505 10499 10490 10481 10475 10469 10464 10454 10438 10427 10425 10428 10420 10404 10391 10382 10372 10363 10354 10345 10338 10331 10324 10315 10305 10296 10286 10277 10268
10689 10691 10693 10694 10695 10696 10696 10697 10696 10696 10696 10695 10693 10692 10690 10689 10688 10686 10685 10683 10680 10678 10676 10674 10671 10669 10667 10664 10661 10659 10656 10653 10649 10646 10642 10638 10634 10629 10625 10620 10616 10611 10607 10601 10596 10590 10584 10579 10574 10568 10562 10555 10549 10542 10536 10530 10523 10515 10507 10499 10492 10485 10476 10467 10459 10453 10447 10435 10420 10413 10414 10412 10399 10382 10371 10362 10354 10346 10337 10330 10323 10313 10303 10292 10282 10273 10263 10254
10690 10691 10693 10693 10694 10694 10694 10694 10694 10694 10693 10692 10691 10690 10689 10687 10686 10684 10682 10681 10679 10676 10674 10673 10670 10668 10666 10664 10661 10658 10655 10652 10648 10644 10640 10636 10631 10627 10622 10617 10613 10608 10603 10598 10592 10587 10581 10576 10570 10564 10558 10552 10545 10540 10533 10527 10520 10512 10504 10496 10487 10479 10471 10462 10451 10442 10436 10427 10415 10403 10397 10396 10388 10372 10359 10351 10344 10337 10329 10321 10312 10300 10289 10279 10269 10260 10251 10241
10690 10691 10692 10692 10692 10693 10693 10692 10692 10691 10691 10690 10689 10688 10687 10685 10684 10682 10681 10679 10678 10675 10673 10672 10670 10668 10666 10663 10661 10657 10654 10650 10647 10643 10638 10633 10629 10624 10619 10614 10609 10605 10600 10595 10590 10584 10578 10572 10567 10561 10555 10549 10543 10536 10530 10523 10516 10509 10501 10493 10484 10476 10466 10457 10446 10435 10426 10417 10407 10396 10385 10382 10377 10360 10347 10341 10333 10326 10318 10308 10298 10288 10278 10268 10258 10249 10238 10229
10690 10690 10691 10691 10691 10691 10691 10691 10690 10690 10689 10688 10687 10686 10685 10683 10682 10680 10679 10678 10676 10674 10673 10671 10669 10667 10665 10662 10659 10656 10652 10648 10644 10640 10635 10630 10626 10620 10615 10610 10606 10601 10596 10592 10587 10582 10575 10570 10564 10558 10552 10546 10539 10533 10526 10520 10512 10505 10497 10489 10480 10471 10461 10451 10441 10429 10418 10408 10400 10391 10378 10373 10369 10350 10334 10330 10322 10313 10304 10294 10285 10276 10266 10256 10247 10237 10227 10218
10689 10689 10689 10689 10690 10689 10689 10689 10689 10688 10688 10687 10685 10684 10683 10682 10680 10679 10678 10677 10675 10674 10672 10671 10669 10666 10664 10661 10658 10654 10650 10645 10641 10636 10631 10627 10622 10617 10613 10608 10603 10598 10593 10588 10585 10580 10574 10567 10562 10555 10549 10541 10534 10528 10522 10515 10508 10501 10494 10486 10475 10466 10456 10445 10435 10424 10414 10401 10391 10383 10371 10363 10359 10346 10329 10320 10313 10303 10292 10281 10272 10262 10253 10244 10233 10223 10214 10205
10688 10688 10688 10688 10688 10688 10688 10688 10688 10687 10686 10685 10684 10683 10682 10681 10680 10679 10677 10676 10675 10674 10672 10671 10669 10666 10663 10659 10656 10652 10648 10643 10639 10635 10630 10625 10621 10616 10611 10606 10600 10595 10590 10584 10580 10577 10571 10564 10558 10552 10545 10538 10530 10523 10517 10510 10503 10495 10488 10482 10474 10463 10453 10442 10430 10420 10409 10397 10383 10373 10361 10348 10340 10333 10324 10314 10304 10294 10282 10271 10260 10249 10239 10228 10217 10208 10199 10190
10687 10687 10687 10687 10688 10688 10688 10687 10686 10685 10684 10683 10683 10682 10681 10681 10680 10678 10677 10676 10675 10674 10672 10670 10668 10665 10661 10657 10653 10649 10645 10641 10637 10632 10628 10623 10618 10614 10609 10604 10598 10593 10587 10581 10575 10572 10567 10561 10555 10548 10541 10535 10527 10519 10511 10504 10496 10488 10480 10474 10469 10461 10452 10441 10429 10417 10404 10390 10375 10363 10352 10336 10322 10314 10308 10301 10291 10281 10271 10259 10247 10236 10225 10214 10204 10195 10186 10177
10687 10687 10687 10687 10687 10687 10686 10685 10684 10684 10683 10683 10682 10682 10681 10680 10679 10678 10677 10676 10675 10674 10672 10669 10666 10663 10659 10655 10651 10647 10643 10638 10634 10630 10626 10622 10617 10613 10609 10605 10600 10595 10590 10583 10575 10569 10565 10559 10552 10546 10539 10532 10525 10516 10508 10499 10489 10481 10472 10463 10455 10450 10444 10435 10424 10415 10403 10385 10366 10354 10345 10331 10314 10303 10295 10286 10276 10266 10257 10247 10236 10225 10213 10202 10191 10182 10174 10165
10686 10686 10686 10687 10686 10686 10685 10684 10684 10683 10683 10683 10682 10682 10681 10680 10679 10678 10677 10676 10674 10673 10670 10667 10664 10660 10657 10653 10649 10645 10641 10637 10634 10630 10626 10622 10618 10614 10609 10605 10600 10595 10589 10583 10575 10567 10563 10557 10550 10543 10536 10527 10520 10512 10505 10496 10485 10474 10465 10455 10443 10433 10425 10417 10407 10401 10396 10382 10361 10344 10333 10320 10307 10298 10288 10277 10266 10255 10246 10235 10224 10214 10202 10190 10180 10170 10161 10151
10686 10686 10686 10686 10685 10684 10684 10684 10684 10684 10683 10683 10683 10682 10681 10680 10679 10679 10677 10676 10673 10671 10668 10665 10662 10658 10655 10651 10647 10644 10640 10637 10633 10629 10626 10621 10617 10612 10607 10603 10598 10593 10587 10581 10574 10565 10558 10553 10546 10538 10531 10522 10512 10504 10496 10488 10479 10469 10458 10447 10436 10422 10410 10400 10389 10380 10377 10372 10356 10339 10324 10306 10295 10288 10277 10266 10256 10244 10234 10222 10210 10201 10190 10179 10168 10156 10145 10135
10685 10685 10685 10684 10684 10684 10684 10684 10684 10684 10683 10683 10683 10682 10681 10681 10680 10678 10676 10674 10672 10669 10667 10663 10660 10657 10654 10650 10646 10643 10640 10636 10633 10629 10625 10621 10616 10612 10607 10602 10597 10591 10585 10580 10573 10564 10554 10547 10540 10532 10524 10516 10507 10497 10489 10480 10471 10462 10451 10440 10429 10417 10405 10394 10384 10370 10361 10355 10345 10332 10320 10299 10284 10278 10267 10254 10245 10233 10220 10210 10199 10190 10179 10166 10154 10142 10131 10121
10685 10684 10684 10684 10684 10684 10684 10684 10684 10684 10684 10683 10683 10682 10681 10681 10679 10677 10675 10673 10671 10668 10665 10662 10659 10656 10653 10650 10647 10644 10640 10637 10633 10629 10625 10620 10616 10612 10606 10601 10596 10590 10584 10577 10571 10565 10554 10542 10535 10528 10519 10512 10503 10492 10483 10473 10463 10453 10443 10433 10423 10412 10400 10388 10379 10368 10356 10348 10336 10321 10310 10294 10278 10269 10259 10245 10236 10227 10214 10202 10192 10181 10170 10159 10147 10136 10125 10113
10684 10683 10683 10684 10684 10684 10684 10684 10684 10684 10684 10684 10683 10682 10681 10680 10678 10676 10674 10672 10670 10667 10664 10662 10659 10656 10653 10650 10647 10644 10640 10636 10632 10628 10624 10620 10616 10611 10605 10599 10594 10587 10581 10574 10567 10562 10554 10542 10533 10526 10518 10509 10500 10489 10478 10467 10456 10446 10436 10426 10416 10408 10396 10379 10364 10354 10345 10339 10330 10312 10293 10280 10267 10256 10246 10236 10225 10216 10204 10191 10181 10171 10161 10151 10140 10129 10118 10107
10683 10683 10684 10684 10684 10685 10685 10685 10685 10685 10684 10684 10683 10682 10681 10679 10678 10676 10674 10671 10669 10666 10664 10661 10659 10656 10653 10650 10647 10643 10640 10636 10632 10628 10624 10620 10615 10610 10604 10598 10592 10586 10579 10573 10565 10559 10553 10543 10532 10523 10515 10505 10495 10485 10475 10464 10453 10442 10430 10419 10408 10398 10389 10373 10353 10337 10326 10318 10315 10304 10282 10264 10256 10244 10230 10220 10209 10198 10188 10177 10167 10159 10148 10137 10127 10118 10110 10100
10684 10684 10684 10685 10685 10685 10685 10685 10685 10685 10684 10684 10683 10682 10680 10679 10677 10675 10673 10671 10668 10666 10664 10661 10658 10656 10653 10650 10647 10643 10640 10636 10633 10629 10624 10619 10614 10608 10603 10597 10591 10584 10577 10571 10563 10555 10548 10540 10529 10518 10509 10500 10491 10481 10471 10461 10450 10437 10425 10414 10402 10389 10379 10370 10353 10331 10316 10304 10297 10292 10274 10250 10240 10231 10216 10203 10194 10183 10174 10164 10154 10143 10132 10122 10111 10102 10095 10087
10684 10684 10685 10685 10685 10686 10686 10686 10686 10685 10684 10684 10683 10682 10680 10679 10677 10675 10673 10670 10668 10666 10663 10661 10659 10656 10653 10650 10647 10643 10640 10636 10632 10628 10623 10619 10613 10608 10602 10596 10589 10582 10575 10567 10560 10553 10545 10538 10528 10516 10506 10496 10485 10475 10465 10454 10443 10433 10422 10409 10395 10383 10372 10365 10355 10334 10313 10298 10285 10278 10265 10244 10227 10218 10206 10193 10184 10173 10162 10151 10140 10129 10118 10109 10099 10089 10081 10073
10685 10685 10685 10686 10686 10686 10687 10687 10686 10685 10685 10684 10683 10681 10680 10678 10677 10675 10672 10670 10668 10666 10663 10661 10659 10656 10653 10650 10646 10643 10639 10635 10631 10627 10623 10618 10613 10607 10601 10594 10588 10580 10572 10564 10557 10550 10543 10536 10526 10515 10505 10495 10484 10472 10461 10450 10439 10427 10417 10405 10390 10378 10365 10354 10347 10333 10310 10292 10280 10270 10258 10242 10226 10213 10199 10186 10173 10159 10147 10137 10129 10120 10108 10098 10089 10080 10071 10062
10685 10686 10686 10687 10687 10687 10687 10687 10686 10686 10685 10684 10683 10681 10680 10678 10676 10675 10673 10670 10668 10666 10664 10662 10659 10656 10653 10650 10646 10642 10639 10635 10631 10627 10622 10616 10611 10605 10599 10592 10586 10578 10571 10563 10554 10546 10539 10534 10526 10515 10503 10491 10481 10472 10461 10450 10439 10425 10412 10400 10386 10373 10359 10343 10332 10324 10308 10288 10276 10269 10254 10236 10221 10208 10192 10178 10164 10150 10139 10129 10121 10113 10103 10092 10082 10072 10062 10053
10686 10687 10687 10688 10688 10688 10688 10688 10687 10686 10685 10684 10683 10681 10680 10678 10677 10675 10673 10670 10668 10667 10664 10662 10660 10657 10654 10650 10647 10643 10639 10635 10630 10625 10620 10614 10609 10603 10597 10590 10583 10577 10569 10561 10552 10543 10535 10529 10525 10519 10509 10498 10487 10477 10465 10450 10436 10422 10408 10394 10381 10367 10355 10342 10327 10317 10306 10284 10266 10260 10252 10232 10214 10202 10189 10175 10163 10151 10137 10125 10115 10107 10098 10088 10078 10067 10056 10047
10687 10688 10688 10689 10689 10689 10689 10688 10687 10686 10685 10684 10683 10682 10680 10678 10677 10675 10673 10671 10669 10667 10665 10663 10660 10657 10654 10651 10647 10644 10639 10634 10629 10624 10619 10613 10607 10601 10595 10588 10582 10575 10567 10559 10550 10540 10529 10520 10514 10509 10504 10498 10488 10476 10465 10450 10434 10419 10404 10390 10377 10363 10349 10338 10325 10312 10303 10285 10260 10246 10243 10232 10213 10199 10188 10176 10164 10151 10138 10124 10110 10097 10087 10078 10069 10060 10050 10041
10688 10688 10689 10689 10689 10689 10690 10689 10687 10687 10685 10684 10683 10682 10680 10679 10677 10675 10673 10671 10669 10667 10665 10662 10659 10656 10653 10650 10646 10642 10638 10633 10628 10623 10618 10612 10606 10599 10593 10587 10580 10573 10565 10557 10548 10538 10527 10515 10505 10495 10485 10476 10467 10456 10447 10440 10430 10417 10402 10387 10374 10360 10345 10331 10318 10303 10292 10282 10261 10237 10228 10225 10213 10198 10186 10174 10161 10148 10135 10122 10108 10093 10081 10070 10060 10050 10041 10032
10689 10689 10690 10690 10690 10690 10690 10689 10688 10687 10685 10684 10684 10682 10681 10679 10677 10675 10673 10671 10669 10667 10665 10662 10659 10655 10652 10648 10644 10640 10636 10632 10627 10622 10616 10610 10604 10598 10592 10585 10579 10572 10563 10555 10547 10538 10528 10515 10502 10491 10480 10468 10459 10449 10438 10429 10421 10411 10400 10386 10371 10357 10343 10327 10312 10295 10281 10274 10264 10242 10222 10214 10205 10191 10176 10163 10150 10138 10126 10114 10102 10089 10077 10064 10052 10040 10029 10018
10690 10690 10690 10690 10691 10691 10690 10689 10688 10687 10686 10685 10684 10682 10681 10679 10677 10676 10674 10672 10670 10667 10665 10662 10658 10655 10651 10647 10643 10638 10634 10630 10625 10619 10613 10607 10601 10596 10590 10583 10576 10570 10562 10555 10547 10538 10528 10517 10504 10491 10481 10471 10460 10450 10439 10425 10413 10403 10392 10381 10367 10353 10340 10326 10309 10293 10278 10265 10258 10245 10225 10207 10195 10180 10164 10149 10138 10127 10116 10105 10092 10079 10066 10052 10040 10029 10018 10009
10691 10691 10691 10691 10691 10691 10690 10689 10688 10687 10686 10685 10684 10683 10681 10679 10678 10676 10674 10672 10670 10668 10665 10662 10659 10655 10652 10648 10644 10639 10634 10629 10623 10618 10613 10607 10601 10595 10589 10583 10576 10569 10562 10554 10546 10538 10528 10519 10508 10495 10483 10472 10460 10448 10438 10427 10414 10401 10388 10375 10362 10347 10334 10323 10309 10294 10277 10259 10245 10234 10218 10198 10182 10169 10154 10140 10128 10116 10105 10093 10079 10065 10053 10042 10031 10022 10014 10006
10692 10692 10692 10692 10692 10692 10691 10690 10689 10687 10686 10685 10684 10683 10681 10680 10678 10676 10674 10672 10670 10668 10665 10662 10659 10655 10652 10648 10644 10640 10635 10630 10624 10618 10613 10607 10602 10595 10589 10582 10575 10568 10560 10552 10544 10536 10528 10519 10510 10498 10486 10474 10462 10449 10438 10428 10417 10405 10390 10376 10362 10347 10332 10321 10310 10296 10280 10261 10240 10223 10208 10191 10176 10163 10149 10134 10120 10108 10095 10081 10068 10057 10046 10037 10028 10018 10010 10000
10693 10693 10693 10692 10692 10692 10691 10690 10689 10688 10687 10685 10684 10683 10682 10680 10678 10677 10675 10673 10671 10668 10665 10662 10658 10655 10651 10647 10643 10638 10633 10628 10623 10618 10612 10606 10600 10594 10587 10580 10572 10564 10557 10550 10543 10535 10528 10519 10509 10499 10487 10476 10466 10454 10441 10428 10415 10404 10393 10380 10367 10352 10334 10319 10305 10290 10274 10257 10237 10217 10203 10189 10175 10161 10146 10129 10113 10100 10088 10077 10067 10056 10046 10036 10026 10015 10004 9993
10693 10693 10693 10693 10693 10692 10691 10690 10689 10688 10687 10686 10684 10683 10682 10680 10679 10677 10675 10673 10671 10668 10665 10661 10657 10653 10650 10645 10641 10636 10631 10625 10620 10615 10610 10604 10597 10591 10584 10576 10569 10562 10555 10549 10542 10534 10525 10517 10508 10499 10488 10475 10463 10452 10441 10431 10418 10406 10394 10382 10367 10352 10332 10312 10294 10276 10256 10240 10227 10212 10197 10183 10169 10155 10139 10122 10105 10092 10083 10074 10064 10054 10043 10030 10018 10008 9998 9988
10694 10694 10694 10693 10693 10692 10691 10690 10689 10688 10687 10686 10685 10683 10682 10681 10679 10677 10675 10673 10671 10668 10664 10660 10656 10652 10648 10644 10639 10634 10629 10623 10618 10612 10606 10600 10593 10586 10580 10573 10566 10561 10555 10547 10539 10531 10522 10513 10504 10496 10486 10474 10461 10447 10434 10425 10416 10402 10386 10371 10358 10345 10328 10306 10286 10269 10250 10231 10216 10203 10190 10175 10161 10147 10130 10114 10098 10084 10072 10063 10052 10041 10031 10021 10009 9999 9990 9982